Temp
13 13 13 13 13 14 14 14 14 14 14 14 14 14 14 14 14 14 14 14 14 14 14 15 16 16 15 13 13 15 16 18 18 17 16 15 15 14 14 13 12 12 12 11 12
13 13 13 13 14 14 14 14 14 14 14 14 14 15 15 14 14 14 14 14 14 14 14 16 13 14 14 15 16 15 16 18 17 17 16 16 15 14 14 14 13 12 11 12 12
13 13 13 13 14 14 14 14 14 14 14 14 14 15 15 14 14 14 14 14 14 15 15 15 12 12 14 14 17 17 18 18 17 17 16 15 15 15 14 14 13 12 12 13 11
13 13 13 13 14 14 14 14 14 14 14 14 15 15 15 14 15 15 14 15 15 15 15 13 13 10 13 14 17 17 18 18 17 16 16 16 15 15 15 15 13 12 11 11 10
13 13 13 13 13 14 14 14 14 14 14 14 15 15 15 14 14 14 15 15 15 14 15 14 13 15 13 15 17 17 18 18 17 16 16 16 16 15 15 14 13 12 11 11 11
13 13 13 14 14 14 14 14 14 14 14 14 14 15 15 14 15 14 15 15 15 15 14 15 16 16 16 16 18 18 18 18 17 16 17 16 15 15 14 14 13 12 11 11 11
13 13 13 14 14 14 14 14 14 14 14 14 14 15 15 14 14 15 15 15 15 14 14 15 15 16 15 15 18 18 18 18 17 17 17 17 17 16 14 14 13 12 12 12 12
13 13 14 14 14 14 14 14 14 14 14 14 14 14 14 15 15 15 15 15 15 15 14 14 15 15 16 16 16 17 15 16 17 18 17 16 16 15 14 14 13 13 12 12 12
13 13 13 14 14 14 14 14 14 14 14 14 14 14 14 15 15 15 15 15 15 15 15 15 15 16 14 15 15 16 15 16 17 18 17 16 16 15 15 14 13 13 12 12 12
13 13 13 14 14 14 14 14 14 14 14 14 14 15 15 15 15 15 14 14 15 15 15 16 17 16 16 15 14 17 18 18 17 18 18 18 17 16 16 15 14 14 13 12 12
13 13 13 13 14 14 14 14 14 14 14 15 15 15 15 15 14 16 15 15 14 15 16 17 18 17 17 17 17 18 18 19 17 17 18 18 18 17 16 16 16 15 14 13 13
13 13 14 14 13 13 13 14 12 12 13 14 14 15 15 15 15 15 15 14 15 16 17 18 19 18 18 17 18 19 20 19 19 18 18 17 19 18 17 17 17 16 15 14 13
14 13 13 14 14 13 13 14 12 13 14 15 14 15 14 15 15 16 15 15 16 16 17 18 18 18 18 19 19 20 19 19 19 19 18 18 18 18 18 18 17 17 16 15 14
14 14 14 14 14 13 13 14 14 13 14 16 15 15 15 15 16 17 16 16 16 17 18 19 19 18 18 19 19 21 19 19 20 20 20 19 18 19 19 18 18 17 17 16 15
14 14 14 14 14 13 12 13 14 13 17 17 16 16 16 16 17 16 16 16 17 17 17 19 19 19 18 19 19 20 19 19 20 20 21 21 19 19 18 19 19 18 18 17 16
14 14 14 14 14 14 15 14 14 14 18 17 16 16 16 16 17 16 16 16 16 17 18 18 18 18 19 19 19 19 19 19 20 21 22 21 22 19 19 19 20 19 19 18 17
14 14 14 14 14 14 14 13 14 16 18 18 17 16 17 17 17 16 16 16 16 17 17 18 18 18 18 18 19 19 19 21 21 22 22 22 22 21 20 20 20 19 19 19 18
15 15 14 14 14 14 14 12 15 19 20 19 18 17 17 18 17 17 17 17 17 18 19 20 20 19 19 18 19 19 20 21 21 23 22 22 22 21 21 20 20 19 19 19 19
14 14 14 14 14 14 13 13 16 19 19 18 18 18 18 18 19 18 17 18 18 18 18 20 20 20 19 19 18 19 19 20 21 22 23 23 22 21 20 20 20 19 18 18 18
13 14 11 14 14 13 12 14 17 17 17 17 18 19 19 19 19 19 18 18 19 19 18 19 19 20 19 18 18 19 19 20 21 21 21 23 22 20 20 20 19 19 18 17 18
13 11 11 12 13 13 13 14 16 17 15 16 17 18 19 20 19 19 19 19 19 19 18 18 19 20 19 18 19 19 19 19 20 21 22 22 19 20 20 19 19 19 18 18 18
12 11 11 12 12 12 13 14 16 16 15 15 16 16 17 18 19 19 19 19 18 18 18 18 18 19 20 20 19 19 20 20 20 20 21 21 21 20 19 19 19 17 17 17 17
12 12 11 11 12 14 14 15 15 14 15 15 15 16 16 16 17 18 19 16 16 17 17 17 18 19 19 20 20 19 19 19 20 20 21 21 21 20 19 18 18 16 17 17 17
11 12 11 10 11 13 14 15 14 13 13 13 14 14 14 15 16 16 17 16 16 15 15 16 16 18 19 20 19 19 19 19 19 20 20 20 21 20 18 18 17 16 16 16 16
10 11 11 13 12 13 13 14 14 14 12 12 12 13 14 15 15 16 16 16 15 15 15 14 15 16 17 17 18 18 19 19 19 19 19 19 19 19 17 17 16 15 14 15 15
8 8 10 10 11 11 12 12 13 14 12 12 12 13 14 13 13 13 14 15 15 15 14 14 14 15 15 16 16 16 17 18 18 18 18 18 18 18 17 15 15 13 12 13 14
9 8 9 9 10 11 12 12 11 11 11 10 10 11 11 11 12 11 10 11 12 12 13 13 13 14 15 15 15 16 17 16 16 17 17 17 17 17 15 14 12 12 11 12 14
Height
3148 3148 3149 3149 3150 3152 3153 3155 3158 3160 3162 3163 3164 3164 3164 3163 3162 3163 3164 3165 3165 3166 3165 3163 3161 3163 3169 3166 3165 3161 3161 3160 3162 3164 3169 3171 3172 3173 3175 3177 3180 3181 3179 3181 3183
3149 3149 3150 3150 3151 3152 3153 3155 3157 3160 3162 3163 3164 3165 3164 3164 3164 3164 3165 3165 3164 3165 3163 3160 3162 3170 3171 3166 3162 3158 3160 3161 3165 3167 3170 3172 3173 3175 3177 3180 3182 3182 3182 3183 3184
3149 3150 3150 3151 3152 3152 3154 3155 3157 3159 3161 3163 3165 3165 3165 3165 3166 3165 3165 3167 3167 3166 3164 3163 3160 3156 3159 3163 3163 3159 3162 3164 3168 3170 3172 3173 3175 3177 3179 3181 3183 3182 3181 3183 3185
3150 3151 3151 3151 3152 3153 3153 3155 3157 3158 3161 3163 3165 3166 3166 3166 3170 3166 3166 3167 3167 3166 3166 3168 3162 3164 3162 3165 3162 3162 3166 3167 3169 3171 3172 3174 3176 3178 3178 3181 3183 3182 3182 3184 3187
3150 3151 3151 3151 3152 3153 3154 3154 3157 3158 3160 3163 3165 3166 3167 3167 3167 3166 3166 3167 3167 3167 3166 3173 3160 3167 3161 3166 3165 3163 3169 3170 3171 3172 3174 3176 3178 3179 3181 3182 3183 3182 3183 3185 3189
3150 3151 3151 3151 3152 3153 3154 3155 3156 3158 3160 3162 3164 3166 3167 3168 3166 3166 3167 3167 3167 3168 3170 3174 3175 3173 3170 3169 3167 3169 3171 3172 3173 3173 3176 3176 3178 3179 3181 3183 3183 3183 3185 3188 3191
3150 3150 3151 3151 3152 3153 3154 3155 3156 3158 3160 3162 3164 3166 3167 3168 3167 3166 3167 3167 3167 3168 3171 3175 3173 3172 3175 3172 3173 3174 3173 3174 3173 3174 3176 3176 3178 3180 3179 3182 3184 3185 3187 3189 3192
3149 3149 3150 3151 3152 3153 3154 3155 3157 3159 3160 3161 3163 3165 3166 3166 3166 3167 3167 3168 3168 3169 3169 3172 3172 3173 3173 3173 3171 3171 3178 3176 3176 3175 3175 3176 3178 3179 3180 3182 3184 3185 3188 3190 3192
3150 3149 3149 3151 3152 3153 3155 3156 3157 3159 3161 3162 3163 3165 3167 3166 3166 3167 3167 3168 3170 3170 3170 3171 3173 3177 3173 3170 3172 3175 3175 3176 3173 3175 3174 3176 3177 3178 3180 3181 3182 3185 3187 3189 3191
3150 3149 3149 3150 3152 3153 3155 3156 3158 3159 3161 3162 3164 3167 3165 3166 3166 3167 3167 3168 3172 3173 3173 3173 3174 3174 3175 3174 3177 3173 3173 3173 3174 3174 3173 3172 3174 3177 3180 3181 3182 3183 3185 3187 3189
3151 3150 3149 3150 3151 3153 3156 3157 3162 3163 3161 3162 3165 3164 3165 3167 3165 3167 3168 3169 3170 3173 3173 3173 3173 3172 3173 3173 3172 3172 3171 3170 3169 3170 3171 3171 3171 3174 3177 3181 3182 3183 3183 3184 3187
3150 3150 3150 3150 3151 3153 3155 3156 3161 3161 3162 3160 3161 3163 3165 3165 3166 3167 3169 3170 3172 3173 3172 3172 3170 3172 3169 3168 3173 3170 3168 3170 3170 3168 3173 3168 3171 3173 3172 3177 3181 3182 3183 3184 3185
3150 3149 3149 3150 3151 3153 3154 3153 3156 3158 3160 3159 3159 3161 3162 3164 3166 3167 3168 3170 3172 3173 3171 3170 3172 3172 3173 3172 3171 3167 3169 3170 3170 3168 3170 3171 3173 3169 3172 3174 3178 3181 3182 3184 3184
3149 3149 3149 3150 3152 3152 3155 3155 3157 3158 3160 3159 3157 3159 3162 3163 3165 3167 3166 3170 3171 3171 3171 3169 3171 3171 3171 3171 3170 3166 3170 3169 3167 3167 3164 3162 3166 3165 3167 3169 3173 3178 3180 3182 3183
3147 3148 3148 3149 3151 3152 3158 3156 3156 3159 3157 3154 3156 3158 3159 3162 3163 3164 3166 3168 3169 3170 3172 3169 3170 3170 3171 3171 3170 3169 3169 3169 3167 3165 3158 3157 3166 3160 3164 3166 3170 3173 3177 3180 3181
3144 3146 3147 3149 3150 3152 3152 3155 3158 3163 3151 3153 3153 3154 3158 3160 3163 3163 3164 3166 3168 3169 3169 3168 3168 3169 3169 3170 3170 3170 3170 3167 3165 3160 3156 3156 3157 3161 3166 3165 3169 3171 3175 3178 3180
3141 3143 3145 3146 3148 3150 3153 3156 3161 3156 3151 3151 3152 3154 3156 3158 3161 3162 3162 3163 3165 3168 3166 3166 3165 3167 3168 3169 3169 3170 3168 3161 3160 3154 3156 3157 3156 3158 3159 3168 3171 3172 3174 3176 3178
3138 3140 3142 3145 3147 3149 3152 3157 3157 3146 3146 3148 3150 3153 3155 3157 3159 3160 3161 3162 3163 3164 3162 3161 3159 3159 3164 3166 3167 3168 3166 3162 3156 3149 3157 3154 3153 3158 3163 3167 3169 3169 3171 3174 3176
3135 3136 3139 3141 3144 3147 3151 3154 3150 3148 3147 3148 3150 3152 3153 3154 3156 3158 3159 3159 3160 3162 3163 3158 3157 3158 3162 3164 3167 3167 3166 3165 3160 3155 3153 3150 3155 3157 3161 3165 3167 3168 3170 3172 3174
3133 3135 3137 3138 3142 3145 3148 3147 3147 3148 3147 3149 3148 3150 3149 3151 3154 3155 3156 3156 3157 3158 3160 3160 3159 3158 3160 3163 3164 3165 3166 3165 3163 3160 3157 3149 3152 3157 3161 3164 3167 3169 3171 3171 3173
3134 3135 3135 3137 3139 3142 3144 3145 3148 3147 3146 3150 3149 3147 3147 3146 3148 3152 3153 3153 3155 3156 3158 3160 3161 3159 3159 3161 3161 3163 3163 3164 3162 3159 3154 3150 3163 3162 3162 3165 3168 3168 3168 3170 3174
3133 3137 3132 3135 3138 3140 3142 3144 3146 3145 3145 3145 3147 3147 3146 3147 3146 3147 3150 3149 3150 3155 3157 3158 3157 3155 3156 3156 3157 3158 3158 3158 3159 3161 3158 3154 3159 3159 3162 3165 3163 3164 3167 3169 3170
3131 3137 3132 3134 3137 3139 3140 3141 3142 3143 3144 3145 3146 3146 3146 3147 3147 3145 3148 3146 3149 3153 3154 3156 3155 3154 3155 3154 3152 3153 3156 3158 3157 3156 3154 3156 3157 3158 3160 3161 3161 3161 3163 3168 3170
3131 3135 3134 3132 3134 3136 3137 3138 3140 3138 3140 3141 3142 3143 3144 3145 3146 3147 3147 3146 3146 3150 3150 3153 3154 3152 3149 3147 3150 3150 3152 3155 3156 3155 3155 3156 3156 3158 3159 3162 3160 3159 3160 3163 3165
3129 3132 3131 3133 3133 3135 3136 3136 3136 3138 3137 3138 3139 3141 3142 3143 3144 3144 3145 3146 3143 3145 3147 3150 3151 3152 3150 3148 3149 3149 3149 3151 3152 3153 3154 3153 3153 3156 3154 3157 3158 3156 3156 3157 3159
3123 3123 3125 3129 3129 3130 3132 3134 3135 3137 3135 3138 3137 3138 3139 3141 3141 3140 3137 3142 3143 3142 3144 3146 3147 3149 3147 3148 3147 3147 3147 3148 3150 3151 3151 3154 3153 3155 3153 3152 3152 3153 3152 3153 3154
3120 3121 3123 3126 3129 3130 3131 3131 3132 3132 3133 3134 3134 3134 3137 3132 3133 3133 3135 3137 3139 3140 3142 3145 3145 3145 3142 3145 3144 3140 3144 3146 3148 3148 3149 3149 3152 3154 3147 3147 3148 3150 3146 3148 3148
Wind_Speed
3 3 3 3 5 7 8 11 12 11 9 6 4 3 2 1 4 8 7 3 2 7 10 14 12 10 15 11 7 10 7 11 13 14 12 14 16 14 16 17 17 5 10 15 13
2 2 2 3 3 5 7 9 11 12 10 8 5 3 3 3 5 6 7 4 9 13 12 18 2 7 6 20 16 12 1 17 12 13 15 10 11 14 16 15 13 21 20 9 12
1 1 3 3 4 4 6 8 10 11 11 9 7 4 4 5 2 4 5 4 6 7 8 7 13 15 8 9 10 11 7 18 14 11 11 10 12 13 14 11 16 16 18 12 14
1 2 2 3 4 4 5 7 9 11 12 11 9 6 6 8 4 4 6 4 5 5 7 5 11 6 14 1 8 9 14 14 13 11 11 10 14 11 6 11 14 16 16 17 16
2 3 3 3 4 5 6 6 7 10 12 12 10 8 7 4 4 3 6 5 3 4 10 5 15 10 10 8 11 10 8 12 12 10 12 11 11 7 9 10 14 16 18 17 15
4 4 4 4 4 4 6 6 6 8 11 12 12 9 8 2 10 5 4 5 4 8 7 8 6 8 5 6 9 9 9 11 9 11 9 8 10 8 9 13 14 16 17 15 14
6 5 5 6 6 5 5 6 7 7 9 11 12 11 10 4 10 5 5 5 5 3 2 8 6 8 4 1 2 5 9 7 8 7 5 5 13 5 9 15 14 14 16 15 14
4 5 6 6 6 6 5 6 7 7 8 9 11 11 6 11 8 6 5 6 5 1 1 5 2 6 11 2 5 6 4 5 4 7 8 7 10 7 11 14 15 14 14 15 15
3 4 6 7 7 7 6 5 5 7 7 8 10 10 6 9 9 6 6 8 3 2 1 1 2 9 9 7 12 4 11 8 7 6 6 8 11 9 10 10 13 15 15 15 16
3 2 4 6 7 8 7 6 5 4 8 9 8 8 11 8 8 8 6 9 8 6 7 9 7 8 9 9 5 4 6 4 9 8 6 8 12 9 11 9 11 14 14 15 16
3 2 3 6 8 9 8 10 7 4 8 10 4 6 1 7 13 9 8 8 7 8 10 9 10 7 6 9 4 2 3 2 5 5 14 8 14 12 11 12 11 13 16 16 17
3 2 2 5 8 10 13 10 4 7 7 13 6 12 7 10 9 9 11 11 10 9 9 8 8 3 4 2 7 6 4 3 4 2 5 10 4 10 14 13 14 13 15 16 16
5 3 2 5 7 9 13 13 7 8 7 14 15 14 13 8 11 11 14 13 11 10 12 18 9 8 3 6 7 10 3 3 5 5 1 4 3 13 12 12 13 14 14 14 17
7 5 4 6 8 10 7 5 5 5 5 13 17 13 14 11 10 11 15 13 11 12 12 12 8 4 6 8 6 5 3 4 6 5 11 11 6 3 19 18 16 13 17 15 17
10 8 7 6 5 11 6 8 7 4 6 14 14 8 15 13 4 15 13 16 14 12 9 12 9 11 8 9 8 10 6 7 8 10 17 21 8 10 21 15 19 13 14 17 17
13 11 10 9 9 9 8 8 6 4 7 10 14 15 16 18 7 10 13 14 12 14 14 17 10 10 9 9 10 8 8 9 11 14 14 14 9 4 4 11 8 13 9 14 17
14 13 12 12 13 11 10 9 4 11 5 10 14 13 16 15 15 11 11 14 15 13 16 16 18 16 10 10 8 8 11 17 13 12 5 4 3 9 13 10 6 6 6 8 13
14 14 14 15 12 11 13 7 10 9 10 2 11 13 16 14 15 12 12 14 15 16 14 16 14 22 17 14 12 10 11 14 11 9 2 8 5 7 4 1 2 5 6 10 12
11 13 13 15 15 15 15 15 12 8 4 4 7 13 14 15 10 15 13 15 15 14 15 11 8 9 9 13 12 11 13 11 16 15 11 3 9 10 9 10 7 4 4 6 9
8 9 6 13 17 17 16 22 17 8 6 3 9 11 13 14 15 14 13 10 13 14 13 9 8 7 8 10 14 16 14 14 11 4 7 9 3 17 10 13 9 9 9 7 6
2 6 16 5 15 19 19 18 13 12 11 11 10 14 11 15 17 15 12 13 12 9 12 12 12 5 7 10 12 11 13 16 15 14 12 5 4 8 12 11 8 8 8 11 8
9 4 18 12 13 15 18 17 17 13 7 9 10 10 11 10 17 16 17 12 15 15 9 11 14 18 18 11 10 14 15 11 16 16 11 17 10 16 13 9 10 8 9 8 7
15 3 14 13 11 11 14 16 15 10 13 10 12 10 11 12 10 11 9 6 8 7 8 7 13 17 17 15 17 19 16 16 16 16 15 11 8 12 4 11 10 5 6 10 10
14 3 7 10 14 12 9 20 17 14 13 10 11 8 10 11 12 12 12 4 11 8 13 16 17 17 20 16 17 11 14 13 18 20 19 18 19 10 8 5 4 4 6 8 8
11 5 7 3 11 13 13 10 14 14 8 8 9 13 12 13 15 17 17 15 9 14 15 16 20 20 21 25 22 20 17 14 14 16 17 18 17 13 9 6 7 3 7 11 13
17 14 14 8 8 5 10 13 11 8 9 3 9 8 9 9 11 10 8 9 14 7 6 9 21 19 25 23 25 26 23 21 20 23 22 21 26 21 16 8 10 3 4 14 22
16 16 13 5 8 9 10 9 11 11 5 8 6 5 8 14 17 13 6 8 8 7 10 9 11 14 24 21 22 31 24 23 26 28 29 29 24 22 16 10 3 6 11 17 24
Wind_Direction
106 118 134 154 178 182 194 193 188 184 180 170 148 125 111 79 140 155 163 126 203 150 126 127 116 81 75 13 298 117 63 58 91 104 114 123 121 114 120 130 136 193 169 161 148
102 126 141 158 176 177 190 195 194 186 184 177 159 134 97 96 142 167 137 95 113 140 140 138 84 310 148 60 69 58 335 71 93 110 118 124 138 135 131 139 124 131 159 150 151
114 161 170 172 172 181 183 193 197 191 185 181 168 148 113 91 121 203 163 120 125 154 176 170 276 233 236 184 64 53 84 91 86 109 121 121 125 133 141 149 156 158 172 156 151
209 208 193 184 181 179 191 185 191 198 192 186 177 169 136 114 46 267 207 162 139 148 168 60 241 8 317 12 13 46 80 84 98 103 116 111 133 130 174 157 171 169 162 157 158
246 222 214 194 189 183 187 191 183 192 198 192 185 183 168 149 314 256 214 190 147 150 139 317 309 8 104 27 96 109 99 97 104 100 98 112 135 136 137 153 168 167 160 161 159
264 231 211 199 191 189 185 184 183 183 194 197 190 191 176 47 256 266 230 184 160 112 54 322 332 330 1 50 60 108 122 117 101 108 112 107 136 135 147 160 169 166 164 163 169
270 247 221 206 194 189 186 179 177 182 183 191 195 196 197 248 246 239 234 193 173 191 321 299 324 316 319 219 99 143 142 137 110 138 119 131 115 137 148 156 172 172 171 171 179
284 255 224 214 205 189 184 180 174 172 181 182 190 195 183 236 233 226 226 189 160 137 257 305 299 308 287 128 266 30 128 115 150 137 107 105 108 123 148 154 169 176 176 184 185
309 259 222 207 204 196 182 175 174 169 171 182 182 190 247 250 225 210 204 192 201 182 326 267 271 350 203 221 22 59 163 213 223 153 138 120 145 143 158 167 173 180 185 189 191
339 286 221 204 199 191 183 163 161 175 173 170 190 181 257 242 220 203 204 200 227 261 270 281 293 217 24 0 264 327 250 121 201 175 191 200 149 157 168 185 189 187 193 195 196
335 313 226 206 195 185 169 133 103 347 225 149 271 125 220 184 209 191 192 202 205 239 245 251 296 211 312 207 214 233 18 14 146 173 213 225 181 172 172 191 196 196 200 199 199
308 297 231 205 196 185 167 151 267 196 261 223 196 204 194 210 205 210 201 199 214 228 241 252 244 162 168 228 268 280 232 61 143 249 252 298 187 192 181 183 205 202 205 201 199
280 273 236 198 193 190 190 194 227 214 243 247 218 221 219 208 211 215 206 206 213 235 244 258 258 302 303 245 260 278 111 144 244 216 279 195 155 230 194 193 199 210 211 206 207
260 251 232 203 188 184 202 230 187 219 265 214 214 219 212 203 220 217 219 199 223 238 249 269 240 263 267 240 277 342 304 277 282 247 253 216 191 203 211 196 195 200 209 212 213
257 243 234 213 185 158 186 207 206 172 269 163 190 208 196 190 191 207 210 205 224 231 242 244 254 260 250 243 270 276 333 278 285 271 273 221 117 189 213 208 192 202 207 215 222
251 241 228 215 207 223 184 171 166 224 244 159 186 184 190 199 220 183 211 208 230 233 243 253 269 251 244 249 263 251 291 258 248 250 273 141 257 89 172 204 173 183 203 217 216
250 239 226 213 199 203 185 151 214 242 138 187 200 193 194 203 206 218 205 213 211 218 241 245 250 246 248 244 249 233 259 261 232 240 172 125 287 136 139 149 157 176 197 212 214
253 243 227 219 208 191 177 183 242 253 213 173 195 192 200 199 211 219 216 220 223 226 275 251 242 225 219 230 232 224 257 294 309 333 197 208 127 123 111 171 272 238 229 229 224
260 250 237 220 209 197 182 210 226 298 15 198 196 193 211 216 222 217 227 231 230 228 243 293 259 140 215 225 228 242 258 273 307 302 278 253 86 136 117 136 127 48 348 221 202
262 246 257 224 208 200 202 223 229 299 278 267 243 221 230 213 210 223 224 239 230 224 227 250 274 229 224 223 237 239 252 276 223 261 274 269 225 126 136 137 110 83 65 112 153
206 80 232 272 207 201 217 234 245 252 260 253 260 257 253 244 217 233 229 234 214 223 225 240 249 228 190 244 238 216 244 242 274 289 306 283 70 150 141 141 128 132 107 99 90
184 140 256 275 205 217 228 232 253 245 293 244 259 261 275 250 256 232 241 275 209 211 244 246 251 250 242 249 241 237 260 215 227 234 257 293 91 132 139 146 159 145 175 177 152
154 234 281 239 209 226 244 233 250 243 253 260 247 254 248 247 278 269 246 221 181 203 232 252 243 250 258 255 232 226 242 251 265 269 276 282 115 120 137 167 178 123 190 238 259
195 216 261 223 221 255 236 240 241 251 242 243 237 258 237 249 242 240 244 251 267 245 229 232 250 271 274 278 329 316 224 247 255 254 249 240 259 288 109 140 105 204 260 265 257
184 220 229 237 235 246 238 255 240 229 251 249 251 243 247 264 251 247 253 251 263 271 278 236 247 260 265 276 286 285 278 265 246 256 261 271 289 294 355 271 234 286 262 258 278
183 209 210 238 266 230 234 231 223 232 234 289 253 238 235 235 247 299 262 245 268 255 251 254 251 260 266 268 275 277 271 265 264 266 269 268 273 279 299 271 241 236 215 246 267
222 224 208 221 258 245 241 238 233 244 255 229 224 235 227 247 234 236 262 259 265 255 255 254 272 281 273 271 275 267 264 265 266 267 263 261 269 265 258 262 266 272 250 255 262